Kankakee, IL

6:41 PM CST on December 12, 2017 (GMT -0600)
Greater Kankakee

Weather History for KIKK - September, 2012

Change the Weather History Date:

Sunday, September 16, 2012

  Actual Average Record
Temperature  
Mean Temperature 61 °F -  
Max Temperature 77 °F 75 °F 92 °F (1991)
Min Temperature 45 °F 52 °F 33 °F (2001)
Degree Days  
Heating Degree Days 4    
Growing Degree Days 11 (Base 50)    
Moisture  
Dew Point 48 °F    
Average Humidity 62    
Maximum Humidity 93    
Minimum Humidity 32    
Precipitation  
Precipitation 0.00 in - - ()
Sea Level Pressure  
Sea Level Pressure 30.09 in    
Wind  
Wind Speed 4 mph (SSW)    
Max Wind Speed 10 mph    
Max Gust Speed 16 mph    
Visibility 10 miles    
Events      
Averages and records for this station are not official NWS values.
T = Trace of Precipitation, MM = Missing Value Source: NWS Daily Summary

Daily Weather History Graph

Daily Weather History Graph

Search for Another Location

Airport or City:

Trip Planner

Search our weather history database for the weather conditions in past years. The results will help you decide how hot, cold, wet, or windy it might be!

Date:

Astronomy

Sep. 16, 2012 Rise Set
Actual Time 6:33 AM CDT 6:57 PM CDT
Civil Twilight 6:05 AM CDT 7:25 PM CDT
Nautical Twilight 5:33 AM CDT 7:57 PM CDT
Astronomical Twilight 4:59 AM CDT 8:31 PM CDT
Moon 7:13 AM CDT (9/16) 7:01 PM CDT (9/16)
Length of Visible Light 13h 19m
Length of Day
12h 24m
New Moon, 0% of the Moon is Illuminated
Sep 16
New Moon
Sep 22
First Quarter
Sep 29
Full
Oct 8
Last Quarter
Oct 15
New

Hourly Weather History & Observations

Time (CDT) Temp. Windchill Dew Point Humidity Pressure Visibility Wind Dir Wind Speed Gust Speed Precip Events Conditions
12:15 AM 55.0 °F - 46.9 °F 74% 30.16 in 10.0 mi SW 5.8 mph - N/A   Clear
12:35 AM 55.2 °F - 47.5 °F 75% 30.16 in 10.0 mi SW 5.8 mph - N/A   Clear
12:55 AM 55.0 °F - 46.9 °F 74% 30.16 in 10.0 mi SW 5.8 mph - N/A   Clear
1:15 AM 54.5 °F - 46.8 °F 75% 30.16 in 10.0 mi SW 5.8 mph - N/A   Clear
1:35 AM 53.4 °F - 46.4 °F 77% 30.16 in 10.0 mi SW 5.8 mph - N/A   Clear
1:55 AM 52.7 °F - 46.4 °F 79% 30.15 in 10.0 mi SW 4.6 mph - N/A   Clear
2:15 AM 53.8 °F - 46.4 °F 76% 30.15 in 10.0 mi WSW 5.8 mph - N/A   Clear
2:35 AM 54.3 °F - 46.8 °F 76% 30.15 in 10.0 mi Calm Calm - N/A   Clear
2:55 AM 51.6 °F - 46.0 °F 81% 30.14 in 10.0 mi Calm Calm - N/A   Clear
3:15 AM 51.3 °F - 46.4 °F 83% 30.14 in 10.0 mi Calm Calm - N/A   Clear
3:35 AM 50.9 °F - 46.2 °F 84% 30.14 in 10.0 mi Calm Calm - N/A   Clear
3:55 AM 50.9 °F - 46.0 °F 83% 30.14 in 10.0 mi Calm Calm - N/A   Clear
4:15 AM 49.3 °F - 45.1 °F 86% 30.14 in 10.0 mi Calm Calm - N/A   Clear
4:35 AM 49.8 °F - 45.7 °F 86% 30.14 in 10.0 mi Calm Calm - N/A   Clear
4:55 AM 48.2 °F - 45.3 °F 90% 30.14 in 10.0 mi Calm Calm - N/A   Clear
5:15 AM 45.9 °F 43.6 °F 43.5 °F 92% 30.14 in 10.0 mi SSW 4.6 mph - N/A   Clear
5:35 AM 46.4 °F - 44.6 °F 93% 30.14 in 10.0 mi Calm Calm - N/A   Clear
5:55 AM 46.4 °F 45.2 °F 44.2 °F 92% 30.15 in 10.0 mi SSW 3.5 mph - N/A   Clear
6:15 AM 46.6 °F - 44.1 °F 91% 30.15 in 10.0 mi SW 3.5 mph - N/A   Clear
6:35 AM 45.5 °F 43.2 °F 42.8 °F 90% 30.15 in 10.0 mi SSW 4.6 mph - N/A   Clear
6:55 AM 45.9 °F - 43.5 °F 92% 30.15 in 10.0 mi Calm Calm - N/A   Clear
7:15 AM 48.2 °F - 46.4 °F 93% 30.16 in 10.0 mi Calm Calm - N/A   Clear
7:35 AM 51.4 °F - 48.0 °F 88% 30.16 in 10.0 mi Calm Calm - N/A   Clear
7:55 AM 55.4 °F - 50.0 °F 82% 30.16 in 10.0 mi Calm Calm - N/A   Clear
8:15 AM 59.0 °F - 52.2 °F 78% 30.16 in 10.0 mi Calm Calm - N/A   Clear
8:35 AM 62.1 °F - 52.5 °F 71% 30.16 in 10.0 mi Calm Calm - N/A   Clear
8:55 AM 64.9 °F - 51.4 °F 62% 30.16 in 10.0 mi Calm Calm - N/A   Clear
9:15 AM 66.7 °F - 51.6 °F 58% 30.15 in 10.0 mi Calm Calm - N/A   Clear
9:35 AM 68.7 °F - 50.4 °F 52% 30.15 in 10.0 mi Calm Calm - N/A   Clear
9:55 AM 70.2 °F - 49.1 °F 47% 30.14 in 10.0 mi Calm Calm - N/A   Clear
10:15 AM 71.6 °F - 47.7 °F 43% 30.14 in 10.0 mi Calm Calm - N/A   Clear
10:35 AM 72.7 °F - 48.9 °F 43% 30.14 in 10.0 mi Calm Calm - N/A   Clear
10:55 AM 73.4 °F - 47.8 °F 40% 30.13 in 10.0 mi Calm Calm - N/A   Clear
11:15 AM 74.5 °F - 47.1 °F 38% 30.12 in 10.0 mi South 9.2 mph - N/A   Clear
11:35 AM 74.8 °F - 48.0 °F 39% 30.12 in 10.0 mi South 6.9 mph - N/A   Clear
11:55 AM 74.7 °F - 46.6 °F 37% 30.11 in 10.0 mi SSE 9.2 mph - N/A   Clear
12:15 PM 75.6 °F - 46.4 °F 35% 30.11 in 10.0 mi South 6.9 mph - N/A   Clear
12:35 PM 76.1 °F - 46.8 °F 35% 30.10 in 10.0 mi South 10.4 mph - N/A   Clear
12:55 PM 76.3 °F - 46.0 °F 34% 30.09 in 10.0 mi South 6.9 mph - N/A   Clear
1:15 PM 76.3 °F - 46.9 °F 35% 30.09 in 10.0 mi South 6.9 mph 10.4 mph N/A   Clear
1:35 PM 77.0 °F - 49.3 °F 38% 30.08 in 10.0 mi South 8.1 mph - N/A   Clear
1:55 PM 74.8 °F - 46.6 °F 37% 30.07 in 10.0 mi SW 4.6 mph - N/A   Clear
2:15 PM 76.8 °F - 46.6 °F 34% 30.06 in 10.0 mi SSW 5.8 mph - N/A   Clear
2:35 PM 76.6 °F - 45.0 °F 32% 30.05 in 10.0 mi South 5.8 mph - N/A   Clear
2:55 PM 77.0 °F - 45.7 °F 33% 30.04 in 10.0 mi SSW 9.2 mph 16.1 mph N/A   Clear
3:15 PM 77.0 °F - 44.8 °F 32% 30.03 in 10.0 mi South 8.1 mph - N/A   Clear
3:35 PM 77.2 °F - 46.2 °F 33% 30.03 in 10.0 mi South 10.4 mph - N/A   Clear
3:55 PM 77.0 °F - 46.0 °F 33% 30.03 in 10.0 mi SSW 10.4 mph - N/A   Clear
4:15 PM 77.0 °F - 45.0 °F 32% 30.02 in 10.0 mi SW 8.1 mph - N/A   Clear
4:35 PM 77.0 °F - 46.6 °F 34% 30.01 in 10.0 mi SW 6.9 mph - N/A   Clear
4:55 PM 76.1 °F - 46.6 °F 35% 30.01 in 10.0 mi SSW 8.1 mph - N/A   Clear
5:15 PM 75.2 °F - 46.6 °F 36% 30.01 in 10.0 mi SW 5.8 mph - N/A   Clear
5:35 PM 73.9 °F - 48.9 °F 41% 30.00 in 10.0 mi SW 6.9 mph - N/A   Clear
5:55 PM 73.4 °F - 50.0 °F 44% 30.00 in 10.0 mi SW 3.5 mph - N/A   Clear
6:15 PM 72.9 °F - 50.0 °F 44% 30.00 in 10.0 mi Calm Calm - N/A   Clear
6:35 PM 68.9 °F - 53.4 °F 58% 30.00 in 10.0 mi Calm Calm - N/A   Clear
6:55 PM 66.7 °F - 53.1 °F 61% 30.00 in 10.0 mi Calm Calm - N/A   Clear
7:15 PM 65.7 °F - 52.3 °F 62% 30.00 in 10.0 mi Calm Calm - N/A   Clear
7:35 PM 62.4 °F - 53.4 °F 72% 30.00 in 10.0 mi Calm Calm - N/A   Clear
7:55 PM 62.4 °F - 52.7 °F 70% 30.01 in 10.0 mi Calm Calm - N/A   Clear
8:15 PM 60.8 °F - 52.9 °F 75% 30.01 in 10.0 mi Calm Calm - N/A   Clear
8:35 PM 59.0 °F - 53.1 °F 81% 30.01 in 10.0 mi Calm Calm - N/A   Clear
8:55 PM 62.6 °F - 51.8 °F 68% 30.01 in 10.0 mi South 5.8 mph - N/A   Clear
9:15 PM 64.4 °F - 50.9 °F 62% 30.01 in 10.0 mi South 4.6 mph - N/A   Clear
9:35 PM 61.9 °F - 51.1 °F 68% 30.02 in 10.0 mi South 5.8 mph - N/A   Scattered Clouds
9:55 PM 63.7 °F - 50.9 °F 63% 30.01 in 10.0 mi South 6.9 mph - N/A   Mostly Cloudy
10:15 PM 63.0 °F - 50.9 °F 65% 30.01 in 10.0 mi South 6.9 mph - N/A   Scattered Clouds
10:35 PM 61.3 °F - 50.7 °F 68% 30.01 in 10.0 mi South 4.6 mph - N/A   Clear
10:55 PM 60.8 °F - 50.9 °F 70% 30.02 in 10.0 mi South 6.9 mph - N/A   Clear
11:15 PM 60.3 °F - 51.1 °F 72% 30.01 in 10.0 mi South 5.8 mph - N/A   Clear
11:35 PM 58.8 °F - 51.4 °F 76% 30.01 in 10.0 mi Calm Calm - N/A   Clear
11:55 PM 57.7 °F - 51.8 °F 81% 30.01 in 10.0 mi SW 3.5 mph - N/A   Clear